Content
SEND FEEDBACK

Daily
Averages
Monthly
Summary
United States of America

JAMESTOWN, NEW YORK


Home > North America > United States > New York
Elevation: 1725 feet     Latitude: 42 09N     Longitude: 079 15W

WEATHER
 
SELECT A DAY
Number of Records: 356,008;   Date Range: 1/1/95 - 12/26/14
 
SHARE

PRINT THIS DATA

[ ← Previous Day ]
WEATHER ALMANAC - OCTOBER 8, 2013
[ Next Day → ]
[ °C ]   °F
We're sorry. There is no daily almanac available for Jamestown, New York on October 8, 2013.
WEATHER BY HOUR - OCTOBER 8, 2013
[ °C ]   °F
Local TimeTemperatureDewpointHumidityBarometerVisibilityWind DirectionWind SpeedGust SpeedPrecipitationEventsConditions
12:35 AM46.4 °F44.6 °F93 %30.11 in3.0 miSSW (210°)5.8 mphPartly Cloudy
12:55 AM46.4 °F44.6 °F93 %30.11 in2.5 miWSW (240°)5.8 mphMostly Cloudy
1:15 AM46.4 °F44.6 °F93 %30.11 in0.2 miSSW (210°)4.6 mphOvercast
1:35 AM46.4 °F44.6 °F93 %30.11 in0.5 miSW (230°)5.8 mphOvercast
1:55 AM46.4 °F44.6 °F93 %30.12 in3.0 miWSW (240°)5.8 mphOvercast
2:15 AM46.4 °F42.8 °F87 %30.13 in3.0 miSW (220°)6.9 mphMostly Cloudy
2:35 AM46.4 °F44.6 °F93 %30.13 in0.5 miSW (230°)6.9 mphOvercast
2:55 AM44.6 °F44.6 °F100 %30.13 in0.2 miSW (230°)6.9 mphOvercast
3:15 AM44.6 °F42.8 °F93 %30.13 in0.2 miWSW (250°)3.5 mphOvercast
3:35 AM44.6 °F42.8 °F93 %30.14 in0.2 miWSW (240°)4.6 mphOvercast
3:55 AM44.6 °F42.8 °F93 %30.15 in0.5 miCalmOvercast
4:15 AM44.6 °F42.8 °F93 %30.15 in0.5 miCalmOvercast
4:35 AM44.6 °F42.8 °F93 %30.17 in0.2 miCalmOvercast
4:55 AM42.8 °F41.0 °F93 %30.17 in0.2 miCalmOvercast
5:15 AM42.8 °F42.8 °F100 %30.18 in0.2 miCalmOvercast
5:35 AM42.8 °F39.2 °F87 %30.19 in0.5 miCalmOvercast
5:55 AM42.8 °F39.2 °F87 %30.20 in0.5 miCalmMostly Cloudy
6:15 AM41.0 °F37.4 °F87 %30.20 in0.2 miCalmOvercast
6:35 AM33.8 °F33.8 °F100 %30.21 in0.2 miSouth (180°)3.5 mphOvercast
6:55 AM42.8 °F39.2 °F87 %30.22 in0.2 miSouth (190°)4.6 mphOvercast
7:15 AM41.0 °F39.2 °F93 %30.23 in0.2 miSouth (190°)3.5 mphOvercast
7:35 AM42.8 °F39.2 °F87 %30.24 in0.2 miSSW (200°)3.5 mphOvercast
7:55 AM42.8 °F41.0 °F93 %30.25 in0.2 miSouth (190°)3.5 mphOvercast
8:15 AM42.8 °F41.0 °F93 %30.26 in0.2 miCalmOvercast
8:35 AM44.6 °F44.6 °F100 %30.27 in0.5 miCalmMostly Cloudy
8:55 AM44.6 °F42.8 °F93 %30.28 in0.2 miCalmOvercast
9:15 AM44.6 °F42.8 °F93 %30.29 in0.2 miSouth (170°)3.5 mphOvercast
9:35 AM46.4 °F44.6 °F93 %30.29 in0.2 miCalmOvercast
9:55 AM46.4 °F46.4 °F100 %30.30 in0.2 miSouth (170°)3.5 mphOvercast
10:15 AM48.2 °F46.4 °F93 %30.30 in0.5 miSSE (160°)3.5 mphOvercast
10:35 AM50.0 °F48.2 °F94 %30.31 in10.0 miCalmMostly Cloudy
10:55 AM50.0 °F48.2 °F94 %30.31 in10.0 miCalmMostly Cloudy
11:15 AM51.8 °F48.2 °F88 %30.31 in10.0 miCalmScattered Clouds
11:35 AM51.8 °F44.6 °F76 %30.31 in10.0 miCalmPartly Cloudy
11:55 AM51.8 °F44.6 °F76 %30.31 in10.0 miNE (40°)3.5 mphPartly Cloudy
12:15 PM53.6 °F44.6 °F72 %30.32 in10.0 miNorth (350°)3.5 mphPartly Cloudy
12:35 PM53.6 °F44.6 °F72 %30.32 in10.0 miNNE (20°)3.5 mphScattered Clouds
12:55 PM48.2 °F44.6 °F87 %30.31 in10.0 miCalmMostly Cloudy
1:15 PM55.4 °F42.8 °F63 %30.31 in10.0 miNorth (10°)4.6 mphMostly Cloudy
1:35 PM57.2 °F42.8 °F59 %30.30 in10.0 miWSW (250°)3.5 mphScattered Clouds
1:55 PM53.6 °F42.8 °F67 %30.30 in10.0 miNorth (10°)8.1 mphMostly Cloudy
2:15 PM53.6 °F42.8 °F67 %30.29 in10.0 miCalmScattered Clouds
2:35 PM55.4 °F42.8 °F63 %30.29 in10.0 miNW (320°)8.1 mphPartly Cloudy
2:55 PM55.4 °F41.0 °F58 %30.30 in10.0 miNorth (350°)5.8 mphClear
3:15 PM53.6 °F39.2 °F58 %30.30 in10.0 miCalmClear
3:35 PM55.4 °F39.2 °F54 %30.30 in10.0 miNW (310°)3.5 mphClear
3:55 PM57.2 °F39.2 °F51 %30.29 in10.0 miWest (270°)5.8 mphClear
4:15 PM55.4 °F42.8 °F63 %30.29 in10.0 miWNW (290°)5.8 mphClear
4:35 PM55.4 °F41.0 °F58 %30.29 in10.0 miCalmClear
4:55 PM59.0 °F42.8 °F55 %30.28 in10.0 miNNW (340°)5.8 mphClear
5:15 PM59.0 °F41.0 °F51 %30.28 in10.0 miNorth (10°)4.6 mphClear
5:35 PM59.0 °F41.0 °F51 %30.28 in10.0 miNNW (340°)8.1 mphClear
5:55 PM59.0 °F41.0 °F51 %30.29 in10.0 miNNW (330°)5.8 mphClear
6:15 PM48.2 °F42.8 °F82 %30.30 in10.0 miNNW (340°)8.1 mphClear
6:35 PM55.4 °F41.0 °F58 %30.30 in10.0 miNNW (340°)6.9 mphClear
6:55 PM48.2 °F41.0 °F76 %30.30 in10.0 miNNW (330°)6.9 mphClear
7:15 PM44.6 °F41.0 °F87 %30.30 in10.0 miNNW (340°)8.1 mphClear
7:35 PM51.8 °F41.0 °F67 %30.31 in10.0 miNorth (360°)6.9 mphClear
7:55 PM51.8 °F42.8 °F71 %30.31 in10.0 miNorth (360°)8.1 mphClear
8:15 PM51.8 °F41.0 °F67 %30.31 in10.0 miNNW (340°)6.9 mphClear
8:35 PM51.8 °F39.2 °F62 %30.32 in10.0 miNNE (20°)5.8 mphClear
8:55 PM51.8 °F39.2 °F62 %30.32 in10.0 miNNE (20°)5.8 mphClear
9:15 PM42.8 °F39.2 °F87 %30.33 in10.0 miNE (40°)5.8 mphClear
9:35 PM50.0 °F39.2 °F66 %30.33 in10.0 miNE (40°)6.9 mphClear
9:55 PM48.2 °F41.0 °F76 %30.33 in10.0 miNE (40°)5.8 mphClear
10:15 PM50.0 °F41.0 °F71 %30.33 in10.0 miNE (50°)5.8 mphClear
10:35 PM50.0 °F41.0 °F71 %30.33 in10.0 miNE (50°)4.6 mphClear
10:55 PM50.0 °F39.2 °F66 %30.33 in10.0 miENE (70°)6.9 mphClear
11:15 PM48.2 °F39.2 °F71 %30.32 in10.0 miEast (80°)5.8 mphClear
11:35 PM48.2 °F39.2 °F71 %30.33 in10.0 miCalmClear
11:55 PM48.2 °F41.0 °F76 %30.33 in10.0 miESE (110°)4.6 mphClear
Hourly data recorded from KJHW, located miles away from Jamestown, New York







STORIES FROM OUR PARTNERS